Regional Weather Roundup
Issued by NWS

Home | Current Version | Previous Version | Graphics & Text | Print | Product List | Glossary On
Versions: 1 2 3 4 5 6 7 8 9 10 11 12 13 14 15 16 17 18 19 20 21 22 23 24 25 26 27 28 29 30 31 32 33 34 35 36 37 38 39 40 41 42 43 44 45 46 47 48 49 50
000
ASUS43 KLOT 011900
RWRIL

ILLINOIS REGIONAL WEATHER ROUNDUP
NATIONAL WEATHER SERVICE CHICAGO/ROMEOVILLE IL
200 PM CDT MON SEP 01 2014

NOTE: "FAIR" INDICATES FEW OR NO CLOUDS BELOW 12,000 FEET WITH NO
SIGNIFICANT WEATHER AND/OR OBSTRUCTIONS TO VISIBILITY.

* THESE STATIONS ARE NOT UNDER NWS QUALITY CONTROL. THEY ALSO MAY NOT
  REPORT WEATHER SUCH AS PRECIPITATION OR FOG.

ILZ001-002-007-009-015-016-024-012000-
NORTHWEST ILLINOIS

CITY           SKY/WX    TMP DP  RH WIND       PRES   REMARKS
MOLINE         MOSUNNY   81  65  58 SW14G21   29.78S HX  83
STERLING*      PTSUNNY   82  66  57 W16       29.78S HX  85
$$

ILZ003-004-008-010-011-017-018-012000-
NORTH CENTRAL ILLINOIS

CITY           SKY/WX    TMP DP  RH WIND       PRES   REMARKS
ROCKFORD       PTSUNNY   80  65  59 SW12G21   29.77F HX  82
$$

ILZ005-006-012>014-019>023-012000-
NORTHEAST ILLINOIS

CITY           SKY/WX    TMP DP  RH WIND       PRES   REMARKS
CHICAGO-OHARE  MOSUNNY   81  63  54 SW17G29   29.77S HX  82
CHICAGO-MIDWAY PTSUNNY   83  67  58 SW18G29   29.77F HX  85
AURORA         MOSUNNY   81  66  60 SW10      29.79S HX  83
WAUKEGAN       MOSUNNY   80  67  64 SW16G22   29.74S HX  82
DUPAGE AIRPORT MOSUNNY   80  65  59 W14G21    29.77F HX  82
WHEELING       MOSUNNY   82  64  54 SW15      29.77S HX  83
NORTHERLY ISL    N/A     82  63  52 W15         N/A  HX  83
$$

LMZ740>746-012000-
SOUTHERN LAKE MICHIGAN

STATION/POSITION SKY/WX   TEMP    WIND        PRES    VSBY  WAVE
                          AIR SEA DIR/SP/G                  HT/PER
                          (F)     (DEG/KT/KT) (MB)    (MI)  (FT/S)
SOUTHERN BUOY              71 69  220/  8/  8 1006.9F         3/ 5
WAUKEGAN HARBOR            78     250/ 14/ 18   N/A
HARRISON CRIB              76     240/ 12/ 16   N/A
BURNHAM HARBOR             81     220/ 12/ 15   N/A
CALUMET HARBOR             82     240/  7/ 16 1007.2F
MICHIGAN CITY              76     190/ 14/ 20   N/A
MICHIGAN CITY 6N           76 72  240/ 12/ 16   N/A           2/ 3
ST. JOSEPH                 73 72  210/ 10/ 14   N/A           3/ 4
$$

ILZ025>027-034>036-040-047-049-050-058-095>099-012000-
WEST-CENTRAL ILLINOIS

CITY           SKY/WX    TMP DP  RH WIND       PRES   REMARKS
QUINCY         PTSUNNY   79  65  62 W13G18    29.88R HX  81
MACOMB*        PTSUNNY   78  66  66 SW14G20   29.86F
$$

ILZ028>032-037-038-041>044-048-051>054-059>061-012000-
CENTRAL ILLINOIS

CITY           SKY/WX    TMP DP  RH WIND       PRES   REMARKS
DECATUR        CLOUDY    82  65  56 W14       29.88R HX  84
PEORIA         PTSUNNY   83  65  54 SW15      29.83S HX  85
SPRINGFIELD    PTSUNNY   80  64  58 W16G24    29.88R HX  82
TAYLORVILLE    NOT AVBL
$$

ILZ033-039-045-046-055>057-062-063-012000-
EAST-CENTRAL ILLINOIS

CITY           SKY/WX    TMP DP  RH WIND       PRES   REMARKS
CHAMPAIGN      PTSUNNY   82  66  58 SW20G29   29.87R HX  84
MATTOON        CLOUDY    81  69  67 SW14G23   29.89R HX  84
$$

ILZ079-100>102-012000-
SOUTHWEST ILLINOIS

CITY           SKY/WX    TMP DP  RH WIND       PRES   REMARKS
BELLEVILLE     CLOUDY    82  69  63 VRB6      29.91R HX  85
CAHOKIA*       CLOUDY    84  65  52 NW7G17    29.90S HX  86
$$

ILZ064>066-069>071-074>076-080>082-084>086-088>090-092>094-012000-
SOUTH-CENTRAL ILLINOIS

CITY           SKY/WX    TMP DP  RH WIND       PRES   REMARKS
CARBONDALE     CLOUDY    83  72  69 SW14G22   29.89R HX  88
MARION         CLOUDY    84  73  70 S16       29.90R HX  91
MT. VERNON     CLOUDY    84  72  65 SW15      29.93R HX  89
$$

ILZ067-068-072-073-078-083-087-091-012000-
SOUTHEAST ILLINOIS

CITY           SKY/WX    TMP DP  RH WIND       PRES   REMARKS
LAWRENCEVILLE  CLOUDY    84  72  67 SW20G28   29.90R HX  89
$$

ABBREVIATIONS USED IN REMARKS
   TC - TEMPERATURE IN CELSIUS
  WCI - WIND CHILL INDEX
   HX - HEAT INDEX
  VSB - VISIBILITY
$$




USA.gov is the U.S. government's official web portal to all federal, state and local government web resources and services.